Simultaneous Nadir Overpasses (SNOs) Predictions

Prediction of SNOs between LANDSAT-8 and NOAA-19 Satellite Orbit:

Table of predicted SNOs for the next 14.0 days since TLE Epoch: 3/22/2025
Index Date (LANDSAT-8) Time (LANDSAT-8) Lat,Lon (LANDSAT-8) SZA (LANDSAT-8 ) Date (NOAA-19) Time (NOAA-19) Lat,Lon (NOAA-19) SZA (NOAA-19 ) Distance(km) Time Diff (sec)
1 03/23/2025 20:18:23 79.35,-101.97 78.64 03/23/2025 20:17:52 79.34,-102.03 78.63 1.44 31
2 03/23/2025 21:07:46 -79.51, 66.74 101.15 03/23/2025 21:08:41 -79.51, 66.76 101.13 0.49 55
3 03/26/2025 03:30:59 -79.38, -29.92 102.21 03/26/2025 03:30:58 -79.39, -29.88 102.20 0.86 1
4 03/28/2025 09:54:12 -79.21,-126.81 103.31 03/28/2025 09:53:16 -79.21,-126.86 103.33 1.05 56
5 03/28/2025 10:43:32 79.44, 42.30 76.99 03/28/2025 10:44:12 79.43, 42.19 76.98 2.51 40
6 03/30/2025 17:06:43 79.31, -54.37 75.93 03/30/2025 17:06:28 79.31, -54.31 75.94 1.36 15
7 03/30/2025 17:56:06 -79.47, 114.36 103.86 03/30/2025 17:57:17 -79.46, 114.26 103.85 2.17 71
8 04/01/2025 23:29:53 79.17,-151.02 74.89 04/01/2025 23:28:44 79.18,-150.91 74.89 2.50 69
9 04/02/2025 00:19:16 -79.34, 17.70 104.90 04/02/2025 00:19:33 -79.33, 17.61 104.91 2.03 17
10 04/04/2025 06:42:25 -79.20, -78.95 105.94 04/04/2025 06:41:48 -79.21, -78.84 105.93 2.42 37



Historial Predications of SNOs between LANDSAT-8 and NOAA-19
